Location: Unspecified
(0.0000°N, 0.0000°E)
Time: 03:22:08
(UTC+00:00)

Clementine 1 - Visible Passes

Search period start: 02 April 2020 00:00
Search period end: 12 April 2020 00:00
Orbit: 801 x 409886 km, 63.8° (Epoch: 17 February)

Date Brightness Start Highest point End Pass type
(mag) Time Alt. Az. Time Alt. Az. Time Alt. Az.
02 Apr ? 07:43:40 10° ENE 12:56:39 68° N 18:10:20 10° WNW visible
03 Apr ? 07:44:47 10° ENE 12:57:07 66° N 18:10:10 10° WNW visible
04 Apr ? 07:46:31 10° ENE 12:57:56 64° N 18:10:12 10° WNW visible
05 Apr ? 07:49:35 10° ENE 12:59:42 62° N 18:10:55 10° WNW visible
06 Apr ? 07:55:43 10° ENE 13:03:38 58° N 18:13:21 10° WNW visible
07 Apr ? 08:11:45 10° NE 13:14:01 52° N 18:22:06 10° NW visible
